Regional Weather Roundup
Issued by NWS

Home | Current Version | Previous Version | Text Only | Print | Product List | Glossary Off
Versions: 1 2 3 4 5 6 7 8 9 10 11 12 13 14 15 16 17 18 19 20 21 22 23 24 25 26 27 28 29 30 31 32 33 34 35 36 37 38 39 40 41 42 43 44 45 46 47 48 49 50

000
ASUS45 KBOU 231410
RWRCO

WEATHER ROUNDUP FOR COLORADO
NATIONAL WEATHER SERVICE PUEBLO CO
800 AM MDT MON APR 23 2018

NOTE: "FAIR" INDICATES FEW OR NO CLOUDS BELOW 12000 FEET WITH NO
SIGNIFICANT WEATHER AND/OR OBSTRUCTIONS TO VISIBILITY.

COZ001>005-013-030-031-231500-
...NORTHWEST COLORADO...

CITY           SKY/WX    TMP DP  RH WIND       PRES   REMARKS
CRAIG          PTSUNNY   43  36  76 W6        30.10S
HAYDEN         MOSUNNY   43  32  65 E12       30.13S
MEEKER         MOSUNNY   41  33  73 CALM      30.12R
RABBIT EARS PA NOT AVBL
STEAMBOAT SPGS FAIR      37  31  79 SE3       30.14F
WALDEN         FAIR      34  27  75 CALM      30.20R
$$

COZ006>008-011-231500-
...WEST CENTRAL VALLEYS...

CITY           SKY/WX    TMP DP  RH WIND       PRES   REMARKS
GRAND JUNCTION SUNNY     52  34  50 SE13      30.07R
MONTROSE       MOSUNNY   51  30  44 CALM      30.14S
EAGLE          SUNNY     37  31  78 CALM      30.21S
RIFLE          MOSUNNY   41  38  89 CALM      30.13R
DELTA          NOT AVBL
NUCLA          NOT AVBL
$$

COZ017>023-064>068-231500-
...SOUTHWEST COLORADO...

CITY           SKY/WX    TMP DP  RH WIND       PRES   REMARKS
DURANGO        PTSUNNY   42  25  50 CALM      30.21R
CORTEZ         SUNNY     43  25  49 E7        30.17R
PAGOSA SPRINGS FAIR      43  22  43 CALM      30.26R
TELLURIDE      MOSUNNY   41  27  56 SE6       30.30S
WOLF CREEK PAS SUNNY     32  16  51 SW8       30.44R WCI  25
$$

COZ009-010-012-014-032>034-037-058>063-231500-
...CENTRAL COLORADO...

CITY           SKY/WX    TMP DP  RH WIND       PRES   REMARKS
ASPEN          MOSUNNY   42  29  59 CALM      30.19R
BUENA VISTA    FAIR      42  34  73 NW14      30.23S
COPPER MTN     NOT AVBL
BERTHOUD PASS  FAIR      28  19  69 W22G30    30.34R WCI  15
COTTONWOOD PAS MOSUNNY   45  32  61 CALM      30.28S
GUNNISON       MOSUNNY   36  29  75 CALM      30.27R
KREMMLING      SUNNY     37  34  87 CALM      30.22S
LEADVILLE      FOG       30  30 100 N3        30.27S VSB 3/4
MONARCH PASS   MOSUNNY   32  25  74 W18       30.46S WCI  20
SALIDA         FAIR      42  34  73 NW7       30.30S
SUNLIGHT       MOSUNNY   34  23  64 SW12G18   30.33S WCI  25
WILKERSON PASS MOSUNNY   34  27  75 SW7       30.33S WCI  28
$$

COZ069>075-231500-
...SAN LUIS VALLEY/SANGRE DE CRISTO MOUNTAINS...

CITY           SKY/WX    TMP DP  RH WIND       PRES   REMARKS
ALAMOSA        MOSUNNY   38  27  64 CALM      30.23R
DEL NORTE      FAIR      41  25  53 W9        30.25R
LA VETA PASS   SUNNY     36  27  69 SW21G29   30.40R
SAGUACHE       NOT AVBL
$$

COZ035-036-038>040-231500-
...NORTHERN COLORADO FRONT RANGE...

CITY           SKY/WX    TMP DP  RH WIND       PRES   REMARKS
DENVER INTL AP PTSUNNY   44  38  79 W5        30.09S
DMNS CITY PARK NOT AVBL
AURORA         NOT AVBL
FRONT RANGE AP PTSUNNY   46  41  81 W6        30.10S
ERIE MUNI ARPT FAIR      42  39  89 CALM      30.15F
BOULDER MUN AP FAIR      45  37  76 CALM      30.09F
CENTENNIAL     MOSUNNY   48  38  68 CALM      30.10S
BROOMFIELD     PTSUNNY   46  39  76 CALM      30.11R
LOVELAND       SUNNY     43  38  82 NE3       30.11S
LONGMONT       FAIR      46  41  83 CALM      30.11F
$$

COZ041-046-047-076>085-087-088-231500-
...PIKES PEAK/PALMER DIVIDE AND SOUTHERN FOOTHILLS...

CITY           SKY/WX    TMP DP  RH WIND       PRES   REMARKS
COLO. SPRINGS  MOSUNNY   43  35  73 CALM      30.14F
A. F. ACADEMY  SUNNY     40  35  83 CALM      30.13F
SCHRIEVER AFB  NOT AVBL
CHEYENNE MTN   NOT AVBL
ELLICOTT         N/A    N/A N/A N/A CALM      30.13F
FALCON         FAIR      45  36  71 CALM      30.16S
FORT CARSON    NOT AVBL
LIMON          SUNNY     40  36  86 SE7       30.14S
MONUMENT HILL  SUNNY     48  34  57 SW8       30.15F
CANON CITY     FAIR      45  39  81 E3        30.14S
WALSENBURG     FAIR      50  36  57 CALM      30.15S
TRINIDAD       MOSUNNY   50  39  66 W10       30.14F
$$

COZ042>045-048>051-090-091-231500-
...NORTHEAST COLORADO...

CITY           SKY/WX    TMP DP  RH WIND       PRES   REMARKS
GREELEY ARPT   SUNNY     40  36  86 VRB3      30.11
AKRON          MOSUNNY   43  37  79 S13       30.11R
BURLINGTON     SUNNY     45  39  79 S10       30.17R
WRAY           FAIR      46  37  71 S7        30.16S
YUMA           NOT AVBL
STERLING       NOT AVBL
HOLYOKE        FAIR      45  39  81 S8        30.15S
FORT MORGAN    FAIR      42  37  84 CALM      30.11S
$$

COZ086-089-092>099-231500-
...SOUTHEAST COLORADO...

CITY           SKY/WX    TMP DP  RH WIND       PRES   REMARKS
PUEBLO         MOSUNNY   43  34  70 CALM      30.14R
LA JUNTA       SUNNY     42  37  82 CALM      30.14R
LAMAR          SUNNY     47  39  74 CALM      30.15R
SPRINGFIELD      N/A     44  40  85 S13       30.15F
$$





USA.gov is the U.S. government's official web portal to all federal, state and local government web resources and services.